Evanston, WY

5:53 PM MST on January 17, 2018 (GMT -0700)
Evanston-Uinta County Burns

Weather History for KEVW - January, 2013

Change the Weather History Date:

Tuesday, January 1, 2013

  Actual Average Record
Temperature  
Mean Temperature 9 °F 21 °F  
Max Temperature 18 °F 28 °F 42 °F (1998)
Min Temperature 0 °F 14 °F -12 °F (2011)
Degree Days  
Heating Degree Days 56 44  
Month to date heating degree days 56 44  
Since 1 July heating degree days 3030 3523  
Cooling Degree Days 0 0  
Month to date cooling degree days 0 0  
Year to date cooling degree days 0 0  
Moisture  
Dew Point 3 °F    
Average Humidity 79    
Maximum Humidity 91    
Minimum Humidity 67    
Precipitation  
Precipitation 0.00 in 0.02 in 0.03 in (2004)
Month to date precipitation 0.00 0.02  
Year to date precipitation 0.00 0.02  
Sea Level Pressure  
Sea Level Pressure 30.40 in    
Wind  
Wind Speed 9 mph (SW)    
Max Wind Speed 16 mph    
Max Gust Speed 17 mph    
Visibility 10 miles    
Events      
T = Trace of Precipitation, MM = Missing Value Source: NWS Daily Summary

Daily Weather History Graph

Daily Weather History Graph

Search for Another Location

Airport or City:

Trip Planner

Search our weather history database for the weather conditions in past years. The results will help you decide how hot, cold, wet, or windy it might be!

Date:

Astronomy

Jan. 01, 2013 Rise Set
Actual Time 7:49 AM MST 5:06 PM MST
Civil Twilight 7:18 AM MST 5:37 PM MST
Nautical Twilight 6:44 AM MST 6:11 PM MST
Astronomical Twilight 6:10 AM MST 6:45 PM MST
Moon 9:43 PM MST (1/1) 10:01 AM MST (1/1)
Length of Visible Light 10h 18m
Length of Day
9h 16m
Waning Gibbous, 83% of the Moon is Illuminated
Jan 1
Waning Gibbous
Jan 4
Last Quarter
Jan 11
New
Jan 18
First Quarter
Jan 26
Full

Hourly Weather History & Observations

Time (MST) Temp. Windchill Dew Point Humidity Pressure Visibility Wind Dir Wind Speed Gust Speed Precip Events Conditions
12:05 AM -0.4 °F -16.7 °F -2.2 °F 92% 30.08 in 6.0 mi SW 10.4 mph - N/A   Scattered Clouds
12:13 AM -0.4 °F -15.7 °F -2.2 °F 92% 30.08 in 4.0 mi WSW 9.2 mph - N/A   Mostly Cloudy
12:53 AM 1.0 °F -14.0 °F -2.0 °F 87% 30.36 in 7.0 mi WSW 9.2 mph - N/A   Mostly Cloudy
1:53 AM 3.9 °F -13.0 °F 1.0 °F 88% 30.35 in 10.0 mi WSW 12.7 mph - N/A   Overcast
2:53 AM 6.1 °F -7.8 °F 1.9 °F 83% 30.37 in 10.0 mi West 9.2 mph - N/A   Overcast
3:53 AM 3.0 °F -8.0 °F -0.9 °F 84% 30.38 in 10.0 mi SW 5.8 mph - N/A   Mostly Cloudy
4:53 AM 5.0 °F -2.1 °F 1.0 °F 84% 30.39 in 10.0 mi West 3.5 mph - N/A   Overcast
5:53 AM 3.9 °F -5.3 °F 1.0 °F 88% 30.42 in 10.0 mi SW 4.6 mph - N/A   Overcast
7:53 AM 3.9 °F -6.9 °F 1.0 °F 88% 30.47 in 10.0 mi SSW 5.8 mph - N/A   Overcast
8:53 AM 3.9 °F -8.2 °F 1.0 °F 88% 30.49 in 10.0 mi SSW 6.9 mph - N/A   Partly Cloudy
10:53 AM 10.0 °F -2.9 °F 7.0 °F 87% 30.51 in 10.0 mi SSW 9.2 mph - N/A   Scattered Clouds
11:53 AM 12.9 °F 0.7 °F 8.1 °F 81% 30.46 in 10.0 mi SW 9.2 mph - N/A   Overcast
12:53 PM 15.1 °F 1.1 °F 8.1 °F 74% 30.45 in 10.0 mi WSW 12.7 mph - N/A   Partly Cloudy
1:53 PM 17.1 °F 4.3 °F 9.0 °F 71% 30.40 in 10.0 mi SSW 11.5 mph - N/A   Clear
2:53 PM 17.1 °F 3.6 °F 9.0 °F 71% 30.38 in 10.0 mi SW 12.7 mph - N/A   Clear
3:53 PM 17.1 °F 3.6 °F 9.0 °F 71% 30.39 in 10.0 mi WSW 12.7 mph - N/A   Clear
4:53 PM 12.9 °F -2.2 °F 7.0 °F 77% 30.39 in 10.0 mi SW 13.8 mph - N/A   Clear
5:53 PM 10.0 °F -5.9 °F 5.0 °F 80% 30.43 in 10.0 mi WSW 13.8 mph - N/A   Clear
6:53 PM 8.1 °F -8.4 °F 3.0 °F 80% 30.45 in 10.0 mi WSW 13.8 mph - N/A   Clear
7:53 PM 9.0 °F -5.9 °F 3.9 °F 80% 30.48 in 10.0 mi WSW 11.5 mph - N/A   Partly Cloudy
8:53 PM 9.0 °F -4.2 °F 3.9 °F 80% 30.50 in 10.0 mi WSW 9.2 mph - N/A   Overcast
9:53 PM 10.0 °F -2.9 °F 5.0 °F 80% 30.49 in 10.0 mi West 9.2 mph - N/A   Overcast
10:53 PM 9.0 °F 0.6 °F 3.0 °F 77% 30.49 in 10.0 mi NNW 4.6 mph - N/A   Clear
11:53 PM 8.1 °F - 3.0 °F 80% 30.46 in 10.0 mi Calm Calm - N/A   Clear